Regional Weather Roundup
Issued by NWS

Home | Current Version | Previous Version | Text Only | Print | Product List | Glossary On
Versions: 1 2 3 4 5 6 7 8 9 10 11 12 13 14 15 16 17 18 19 20 21 22 23 24 25 26 27 28 29 30 31 32 33 34 35 36 37 38 39 40 41 42 43 44 45 46 47 48 49 50
000
ASUS43 KLSX 240759
RWRMO

WEATHER SUMMARY FOR MISSOURI
NATIONAL WEATHER SERVICE SPRINGFIELD MO
300 AM CDT MON JUL 24 2017

NOTE: "FAIR" INDICATES FEW OR NO CLOUDS BELOW 12,000 FEET WITH NO
       SIGNIFICANT WEATHER AND/OR OBSTRUCTIONS TO VISIBILITY.
       CURRENT SKY AND/OR WEATHER CONDITIONS ARE NOT AVAILABLE FOR
       CHILLICOTHE AND FARMINGTON.

MOZ001>031-035>038-043-044-053-054-240900-
...NORTHERN AND WESTERN MISSOURI...

CITY           SKY/WX    TMP DP  RH WIND       PRES   REMARKS
KANSAS CTY INT PTCLDY    73  66  78 NE7       29.97R
KANSAS C DTWN  PTCLDY    76  66  71 NE6       29.95S
LEE`S SUMMIT   CLEAR     74  69  85 NE7       29.96S
ST JOSEPH      CLEAR     66  65  96 CALM      29.98R
CHILLICOTHE      N/A     70  66  87 CALM      29.98R
KIRKSVILLE     PTCLDY    67  62  84 N3        29.97S

$$
MOZ066>068-077>081-088>096-101>105-240900-
...SOUTHWEST MISSOURI...

CITY           SKY/WX    TMP DP  RH WIND       PRES   REMARKS
SPRINGFIELD    CLOUDY    73  71  93 SW7       29.95F
JOPLIN         CLEAR     74  72  93 S5        29.96S

$$
MOZ032>034-039>042-045>050-055>058-069>072-240900-
...CENTRAL MISSOURI...

CITY           SKY/WX    TMP DP  RH WIND       PRES   REMARKS
COLUMBIA       MOCLDY    73  68  84 NE9       29.93S
JEFFERSON CITY CLEAR     74  72  93 SE3       29.91S
ROLLA          CLOUDY    71  70  96 CALM      29.93S
SEDALIA        CLEAR     76  75  97 NE5       29.94S
OSAGE BEACH    CLOUDY    71  68  90 CALM      29.93S

$$
MOZ051-052-059>065-240900-
...EAST CENTRAL MISSOURI...

CITY           SKY/WX    TMP DP  RH WIND       PRES   REMARKS
ST LOUIS INTL  CLOUDY    77  69  76 N3        29.91R
SPIRIT OF STL  CLOUDY    73  72  96 CALM      29.90S
ST CHARLES     PTCLDY    74  67  78 N10       29.89S

$$
MOZ072>076-082>087-097>100-106>115-240900-
...SOUTH CENTRAL AND SOUTHEAST MISSOURI...

CITY           SKY/WX    TMP DP  RH WIND       PRES   REMARKS
CAPE GIRARDEAU CLEAR     74  69  85 W6        29.88F
FARMINGTON     PTCLDY    70  69  97 CALM      29.92S
POPLAR BLUFF   PTCLDY    74  73  97 CALM      29.88F
WEST PLAINS    CLOUDY    70  66  87 CALM      29.95S

$$




USA.gov is the U.S. government's official web portal to all federal, state and local government web resources and services.